Cruise_ID,Date_UTC,Time_UTC,Date_EDT,Time_EDT,Latitude,Longitude,Temp_C,Sp_Cond,Sal_PSU,pH,ODO,Chlorophyll
11BHM01,5/3/2011,14:19,5/3/2011,10:19,27.76025,-82.6334,21.51,0.911,0.45,8.43,72.6,1.6
11BHM01,5/3/2011,14:24,5/3/2011,10:24,27.76025,-82.63343,21.55,0.913,0.45,8.41,72.3,1.2
11BHM01,5/3/2011,14:29,5/3/2011,10:29,27.75915,-82.63122,21.6,0.916,0.45,8.41,72.5,1.6
11BHM01,5/3/2011,14:34,5/3/2011,10:34,27.75902,-82.61867,21.66,0.918,0.45,8.41,72.5,5.9
11BHM01,5/3/2011,14:39,5/3/2011,10:39,27.7534,-82.61167,21.72,0.919,0.45,8.4,72.5,1.7
11BHM01,5/3/2011,14:44,5/3/2011,10:44,27.74223,-82.61125,21.8,0.92,0.45,8.41,72.1,1.5
11BHM01,5/3/2011,14:49,5/3/2011,10:49,27.73122,-82.6107,21.89,0.92,0.45,8.4,72.2,1.3
11BHM01,5/3/2011,14:54,5/3/2011,10:54,27.72025,-82.61032,21.98,0.919,0.45,8.41,72.5,1.4
11BHM01,5/3/2011,14:59,5/3/2011,10:59,27.70948,-82.61005,22.06,0.92,0.45,8.41,73.4,1.3
11BHM01,5/3/2011,15:04,5/3/2011,11:04,27.69882,-82.60958,22.13,0.921,0.45,8.41,73.1,1.7
11BHM01,5/3/2011,15:09,5/3/2011,11:09,27.68792,-82.60917,22.24,0.923,0.45,8.41,73,1.2
11BHM01,5/3/2011,15:14,5/3/2011,11:14,27.67712,-82.60873,22.3,0.923,0.45,8.4,73,3.1
11BHM01,5/3/2011,15:19,5/3/2011,11:19,27.66812,-82.6141,22.54,0.922,0.45,8.39,72.9,6
11BHM01,5/3/2011,15:24,5/3/2011,11:24,27.65962,-82.62148,22.44,0.924,0.46,8.4,73.1,1.7
11BHM01,5/3/2011,15:29,5/3/2011,11:29,27.65105,-82.6288,22.51,0.928,0.46,8.38,73.2,2.1
11BHM01,5/3/2011,15:34,5/3/2011,11:34,27.64262,-82.63603,22.6,0.929,0.46,8.39,73.5,1.1
11BHM01,5/3/2011,15:39,5/3/2011,11:39,27.63418,-82.6434,22.69,0.929,0.46,8.39,73.7,1.4
11BHM01,5/3/2011,15:44,5/3/2011,11:44,27.62553,-82.65077,22.77,0.931,0.46,8.4,73.6,1.4
11BHM01,5/3/2011,15:49,5/3/2011,11:49,27.61893,-82.65927,22.84,0.932,0.46,8.39,73.7,2.7
11BHM01,5/3/2011,15:54,5/3/2011,11:54,27.6146,-82.67017,22.9,0.963,0.47,8.31,73.8,1.3
11BHM01,5/3/2011,15:59,5/3/2011,11:59,27.61255,-82.68135,23.24,6.393,3.49,8.27,76.9,2
11BHM01,5/3/2011,16:04,5/3/2011,12:04,27.61083,-82.69322,24.05,20.18,12.05,8.28,81.8,2
11BHM01,5/3/2011,16:09,5/3/2011,12:09,27.60902,-82.70493,24.25,22.18,13.35,8.27,81.7,1.8
11BHM01,5/3/2011,16:14,5/3/2011,12:14,27.60763,-82.71663,24.82,30.5,18.91,8.29,85.8,2.8
11BHM01,5/3/2011,16:19,5/3/2011,12:19,27.60573,-82.72857,25.14,35.64,22.45,8.3,89.5,2.4
11BHM01,5/3/2011,16:24,5/3/2011,12:24,27.60372,-82.7406,25.33,38.32,24.33,8.3,91.1,1.9
11BHM01,5/3/2011,16:29,5/3/2011,12:29,27.60448,-82.75225,25.39,40.02,25.52,8.3,92,3.4
11BHM01,5/3/2011,16:34,5/3/2011,12:34,27.60707,-82.76347,25.46,41.02,26.23,8.29,92.3,3.9
11BHM01,5/3/2011,16:39,5/3/2011,12:39,27.60945,-82.77467,25.54,41.94,26.89,8.29,93.5,2.3
11BHM01,5/3/2011,16:44,5/3/2011,12:44,27.61,-82.78647,25.67,43.22,27.8,8.29,93.8,1.9
11BHM01,5/3/2011,16:49,5/3/2011,12:49,27.60963,-82.79895,25.82,45.19,29.21,8.27,94.4,1.8
11BHM01,5/3/2011,16:54,5/3/2011,12:54,27.60892,-82.81173,25.95,47.38,30.79,8.27,94.4,7.5
11BHM01,5/3/2011,16:59,5/3/2011,12:59,27.6087,-82.82415,26.01,48.83,31.85,8.27,95,3.8
11BHM01,5/3/2011,17:04,5/3/2011,13:04,27.61607,-82.83427,26.08,49.8,32.56,8.27,94.6,4.6
11BHM01,5/3/2011,17:09,5/3/2011,13:09,27.6235,-82.84463,26.13,50.59,33.14,8.26,94.9,4.4
11BHM01,5/3/2011,17:14,5/3/2011,13:14,27.63113,-82.85498,26.17,51.16,33.56,8.26,95.3,1.7
11BHM01,5/3/2011,17:19,5/3/2011,13:19,27.63888,-82.86538,26.2,51.56,33.86,8.26,95.6,1.4
11BHM01,5/3/2011,17:24,5/3/2011,13:24,27.64647,-82.876,26.23,51.87,34.08,8.25,95.4,1.8
11BHM01,5/3/2011,17:29,5/3/2011,13:29,27.6542,-82.88662,26.24,52.07,34.23,8.26,95.5,1.5
11BHM01,5/3/2011,17:34,5/3/2011,13:34,27.66192,-82.89715,26.26,52.22,34.34,8.26,95.6,2
11BHM01,5/3/2011,17:39,5/3/2011,13:39,27.66973,-82.90767,26.28,52.32,34.41,8.26,95.5,5.8
11BHM01,5/3/2011,17:44,5/3/2011,13:44,27.6774,-82.91832,26.31,52.39,34.47,8.26,95.6,2
11BHM01,5/3/2011,17:49,5/3/2011,13:49,27.68515,-82.92895,26.31,52.47,34.53,8.26,95.5,1.3
11BHM01,5/3/2011,17:54,5/3/2011,13:54,27.69288,-82.9396,26.3,52.54,34.58,8.25,95.5,3.6
11BHM01,5/3/2011,17:59,5/3/2011,13:59,27.70072,-82.95027,26.3,52.59,34.61,8.26,95.7,1.7
11BHM01,5/3/2011,18:04,5/3/2011,14:04,27.70853,-82.96093,26.3,52.63,34.64,8.26,95.8,2
11BHM01,5/3/2011,18:09,5/3/2011,14:09,27.71638,-82.97165,26.34,52.64,34.65,8.26,95.6,1.3
11BHM01,5/3/2011,18:14,5/3/2011,14:14,27.72418,-82.98237,26.36,52.68,34.68,8.26,95.8,2.2
11BHM01,5/3/2011,18:19,5/3/2011,14:19,27.7321,-82.9931,26.38,52.73,34.72,8.26,95.8,1.2
11BHM01,5/3/2011,18:24,5/3/2011,14:24,27.7398,-83.00392,26.39,52.76,34.73,8.26,95.8,1.6
11BHM01,5/3/2011,18:29,5/3/2011,14:29,27.74777,-83.01462,26.4,52.78,34.75,8.26,95.6,1
11BHM01,5/3/2011,18:34,5/3/2011,14:34,27.75558,-83.02545,26.42,52.78,34.75,8.26,95.4,1.4
11BHM01,5/3/2011,18:39,5/3/2011,14:39,27.7634,-83.03613,26.43,52.78,34.75,8.26,95.6,1.6
11BHM01,5/3/2011,18:44,5/3/2011,14:44,27.77123,-83.04682,26.44,52.78,34.75,8.26,96,1.6
11BHM01,5/3/2011,18:49,5/3/2011,14:49,27.77902,-83.05765,26.41,52.74,34.72,8.26,96.1,1.1
11BHM01,5/3/2011,18:54,5/3/2011,14:54,27.78695,-83.06837,26.35,52.68,34.68,8.26,96.1,1.9
11BHM01,5/3/2011,18:59,5/3/2011,14:59,27.79483,-83.07913,26.24,52.57,34.6,8.26,96.5,1.1
11BHM01,5/3/2011,19:04,5/3/2011,15:04,27.8027,-83.08988,26.13,52.55,34.59,8.26,97,1.5
11BHM01,5/3/2011,19:09,5/3/2011,15:09,27.81052,-83.10077,26.12,52.56,34.59,8.26,97.2,1.4
11BHM01,5/3/2011,19:14,5/3/2011,15:14,27.81848,-83.11157,26.03,52.6,34.63,8.26,97.1,3.7
11BHM01,5/3/2011,19:19,5/3/2011,15:19,27.82628,-83.12247,25.94,52.63,34.65,8.26,97.3,4
11BHM01,5/3/2011,19:24,5/3/2011,15:24,27.83425,-83.13327,25.98,52.56,34.6,8.26,96.9,1.2
11BHM01,5/3/2011,19:29,5/3/2011,15:29,27.84213,-83.14418,26.02,52.54,34.59,8.27,96.8,3.1
11BHM01,5/3/2011,19:34,5/3/2011,15:34,27.85012,-83.15503,26.07,52.53,34.58,8.27,96.8,0.8
11BHM01,5/3/2011,19:39,5/3/2011,15:39,27.85808,-83.16587,26.07,52.61,34.63,8.27,97.1,1
11BHM01,5/3/2011,19:44,5/3/2011,15:44,27.86595,-83.1768,26.07,52.68,34.68,8.27,97.4,2.8
11BHM01,5/3/2011,19:49,5/3/2011,15:49,27.87393,-83.1877,26.07,52.73,34.72,8.27,97.6,1.4
11BHM01,5/3/2011,19:54,5/3/2011,15:54,27.88185,-83.19865,26.05,52.82,34.79,8.27,97.8,1.7
11BHM01,5/3/2011,19:59,5/3/2011,15:59,27.8899,-83.2095,26.05,52.88,34.83,8.27,97.6,1.5
11BHM01,5/3/2011,20:04,5/3/2011,16:04,27.89785,-83.22048,26.05,52.9,34.85,8.27,97.4,1.2
11BHM01,5/3/2011,20:09,5/3/2011,16:09,27.90585,-83.23143,26.03,52.98,34.91,8.26,97.3,1.3
11BHM01,5/3/2011,20:14,5/3/2011,16:14,27.91388,-83.24242,26.03,53.01,34.93,8.27,97.2,1.2
11BHM01,5/3/2011,20:19,5/3/2011,16:19,27.92187,-83.25342,26.03,53.07,34.97,8.27,97.3,1.5
11BHM01,5/3/2011,20:24,5/3/2011,16:24,27.92983,-83.26438,26.04,53.11,35.01,8.27,97.3,6.1
11BHM01,5/3/2011,20:29,5/3/2011,16:29,27.93783,-83.27535,26.04,53.15,35.03,8.28,97.2,1.9
11BHM01,5/3/2011,20:34,5/3/2011,16:34,27.94588,-83.28628,26.05,53.19,35.07,8.27,97.5,2.8
11BHM01,5/3/2011,20:39,5/3/2011,16:39,27.95383,-83.29733,26.07,53.2,35.07,8.27,98,1.6
11BHM01,5/3/2011,20:44,5/3/2011,16:44,27.96185,-83.30837,26.06,53.23,35.09,8.28,98.4,1.4
11BHM01,5/3/2011,20:49,5/3/2011,16:49,27.96997,-83.31938,26.08,53.23,35.09,8.27,98.2,1.7
11BHM01,5/3/2011,20:54,5/3/2011,16:54,27.97793,-83.33048,26.13,53.2,35.07,8.27,98.4,5.2
11BHM01,5/3/2011,20:59,5/3/2011,16:59,27.98595,-83.34155,26.14,53.22,35.09,8.28,98.4,1
11BHM01,5/3/2011,21:04,5/3/2011,17:04,27.99408,-83.35253,26.2,53.21,35.07,8.28,98.4,2.3
11BHM01,5/3/2011,21:09,5/3/2011,17:09,28.00217,-83.36358,26.21,53.24,35.1,8.27,98.3,1.3
11BHM01,5/3/2011,21:14,5/3/2011,17:14,28.0102,-83.37477,26.25,53.25,35.1,8.27,98.2,5
11BHM01,5/3/2011,21:19,5/3/2011,17:19,28.01833,-83.38587,26.23,53.24,35.1,8.28,98.4,1.8
11BHM01,5/3/2011,21:24,5/3/2011,17:24,28.02642,-83.39703,26.22,53.22,35.08,8.28,98.4,1.9
11BHM01,5/3/2011,21:29,5/3/2011,17:29,28.03455,-83.40815,26.15,53.19,35.06,8.29,98.7,1.5
11BHM01,5/3/2011,21:34,5/3/2011,17:34,28.04268,-83.41932,26.2,53.14,35.02,8.29,98.6,1.5
11BHM01,5/3/2011,21:39,5/3/2011,17:39,28.0508,-83.43057,26.13,53.22,35.08,8.29,98.8,1.6
11BHM01,5/3/2011,21:44,5/3/2011,17:44,28.05898,-83.44175,26.1,53.25,35.11,8.3,98.8,1.1
11BHM01,5/3/2011,21:49,5/3/2011,17:49,28.06718,-83.453,26.14,53.29,35.14,8.29,99.1,2.9
11BHM01,5/3/2011,21:54,5/3/2011,17:54,28.0754,-83.46435,26.15,53.32,35.16,8.29,99.4,1.6
11BHM01,5/3/2011,21:59,5/3/2011,17:59,28.08355,-83.47565,26.16,53.33,35.17,8.3,100.2,1.8
11BHM01,5/3/2011,22:04,5/3/2011,18:04,28.09182,-83.487,26.18,53.34,35.17,8.29,100.4,7.1
11BHM01,5/3/2011,22:09,5/3/2011,18:09,28.1002,-83.4983,26.18,53.35,35.18,8.3,100.7,1.7
11BHM01,5/3/2011,22:14,5/3/2011,18:14,28.10845,-83.5098,26.19,53.35,35.18,8.3,100.2,2
11BHM01,5/3/2011,22:19,5/3/2011,18:19,28.11678,-83.52123,26.2,53.37,35.2,8.3,100.6,1.3
11BHM01,5/3/2011,22:24,5/3/2011,18:24,28.12503,-83.53265,26.21,53.4,35.21,8.3,101.4,1.8
11BHM01,5/3/2011,22:29,5/3/2011,18:29,28.13333,-83.54403,26.25,53.4,35.22,8.3,102,1.8
11BHM01,5/3/2011,22:34,5/3/2011,18:34,28.1417,-83.55535,26.26,53.44,35.24,8.3,102,2.2
11BHM01,5/3/2011,22:39,5/3/2011,18:39,28.14975,-83.56667,26.27,53.45,35.25,8.3,101.9,1.9
11BHM01,5/3/2011,22:44,5/3/2011,18:44,28.15773,-83.57758,26.28,53.47,35.26,8.3,102.1,2.1
11BHM01,5/3/2011,22:49,5/3/2011,18:49,28.16583,-83.58855,26.27,53.48,35.28,8.3,102,3.9
11BHM01,5/3/2011,22:54,5/3/2011,18:54,28.1738,-83.59963,26.27,53.5,35.29,8.3,101.8,5.5
11BHM01,5/3/2011,22:59,5/3/2011,18:59,28.18187,-83.61062,26.28,53.49,35.28,8.3,101.7,1.5
11BHM01,5/3/2011,23:04,5/3/2011,19:04,28.18995,-83.62173,26.3,53.46,35.26,8.28,101.2,1.3
11BHM01,5/3/2011,23:09,5/3/2011,19:09,28.19787,-83.63283,26.27,53.75,35.47,8.28,100.8,2
11BHM01,5/3/2011,23:14,5/3/2011,19:14,28.20587,-83.64368,26.12,53.84,35.54,8.29,101.9,2.5
11BHM01,5/3/2011,23:19,5/3/2011,19:19,28.21385,-83.65475,26.01,53.92,35.6,8.28,101.9,1.9
11BHM01,5/3/2011,23:24,5/3/2011,19:24,28.22195,-83.66585,25.89,54,35.67,8.29,101.9,2.9
11BHM01,5/3/2011,23:29,5/3/2011,19:29,28.2297,-83.67672,25.8,54.07,35.72,8.28,101.4,1.5
11BHM01,5/3/2011,23:34,5/3/2011,19:34,28.2377,-83.68763,25.71,54.13,35.77,8.28,101.4,0.8
11BHM01,5/3/2011,23:39,5/3/2011,19:39,28.24562,-83.69845,25.66,54.17,35.81,8.28,100.9,2.4
11BHM01,5/3/2011,23:44,5/3/2011,19:44,28.2535,-83.70925,25.61,54.21,35.83,8.28,101,1.3
11BHM01,5/3/2011,23:49,5/3/2011,19:49,28.26125,-83.72013,25.55,54.24,35.86,8.28,100.6,1
11BHM01,5/3/2011,23:54,5/3/2011,19:54,28.26912,-83.73093,25.51,54.26,35.87,8.28,101,0.7
11BHM01,5/3/2011,23:59,5/3/2011,19:59,28.27697,-83.74168,25.48,54.27,35.88,8.28,100.8,1.5
11BHM01,5/4/2011,0:04,5/3/2011,20:04,28.28473,-83.75238,25.44,54.28,35.89,8.28,100.9,2.1
11BHM01,5/4/2011,0:09,5/3/2011,20:09,28.29252,-83.76313,25.42,54.29,35.9,8.28,100.6,0.8
11BHM01,5/4/2011,0:14,5/3/2011,20:14,28.30035,-83.77377,25.39,54.29,35.9,8.28,100.7,0.7
11BHM01,5/4/2011,0:19,5/3/2011,20:19,28.308,-83.78437,25.36,54.3,35.9,8.28,100.7,1.2
11BHM01,5/4/2011,0:24,5/3/2011,20:24,28.31575,-83.7951,25.34,54.3,35.91,8.27,101.2,0.9
11BHM01,5/4/2011,0:29,5/3/2011,20:29,28.32358,-83.8058,25.32,54.3,35.91,8.28,101,1.2
11BHM01,5/4/2011,0:34,5/3/2011,20:34,28.3312,-83.81643,25.32,54.3,35.91,8.27,100.8,1.1
11BHM01,5/4/2011,0:39,5/3/2011,20:39,28.33893,-83.82698,25.3,54.31,35.92,8.28,100.7,1.6
11BHM01,5/4/2011,0:44,5/3/2011,20:44,28.34672,-83.83758,25.29,54.32,35.93,8.28,100.8,1
11BHM01,5/4/2011,0:49,5/3/2011,20:49,28.35437,-83.84815,25.27,54.33,35.93,8.28,100.9,1.4
11BHM01,5/4/2011,0:54,5/3/2011,20:54,28.36195,-83.85883,25.25,54.33,35.93,8.28,100.6,0.9
11BHM01,5/4/2011,0:59,5/3/2011,20:59,28.36965,-83.8694,25.22,54.32,35.93,8.28,100.7,0.7
11BHM01,5/4/2011,1:04,5/3/2011,21:04,28.37735,-83.87993,25.17,54.32,35.93,8.28,100.5,7.2
11BHM01,5/4/2011,1:09,5/3/2011,21:09,28.38503,-83.89053,25.13,54.31,35.92,8.27,100.6,0.9
11BHM01,5/4/2011,1:14,5/3/2011,21:14,28.39272,-83.90113,25.07,54.31,35.92,8.28,100.5,1.3
11BHM01,5/4/2011,1:19,5/3/2011,21:19,28.4004,-83.91163,25.03,54.3,35.91,8.28,100.4,0.8
11BHM01,5/4/2011,1:24,5/3/2011,21:24,28.40798,-83.92228,24.99,54.29,35.91,8.28,100.5,1.1
11BHM01,5/4/2011,1:29,5/3/2011,21:29,28.41568,-83.9328,24.94,54.29,35.91,8.27,100.5,0.6
11BHM01,5/4/2011,1:35,5/3/2011,21:35,28.42493,-83.94545,24.9,54.29,35.91,8.27,100,1.7
11BHM01,5/4/2011,1:40,5/3/2011,21:40,28.43248,-83.9561,24.88,54.27,35.89,8.28,100.6,2.9
11BHM01,5/4/2011,1:45,5/3/2011,21:45,28.44025,-83.96655,24.84,54.25,35.88,8.27,100.7,1.4
11BHM01,5/4/2011,1:50,5/3/2011,21:50,28.4478,-83.97713,24.82,54.23,35.87,8.27,100.5,1.1
11BHM01,5/4/2011,1:55,5/3/2011,21:55,28.45552,-83.98768,24.78,54.23,35.87,8.27,99.5,1
11BHM01,5/4/2011,2:00,5/3/2011,22:00,28.46317,-83.99822,24.77,54.23,35.87,8.27,100.1,0.8
11BHM01,5/4/2011,2:05,5/3/2011,22:05,28.47073,-84.00888,24.76,54.22,35.86,8.27,100.6,1
11BHM01,5/4/2011,2:10,5/3/2011,22:10,28.4784,-84.01933,24.74,54.21,35.85,8.27,100.4,1
11BHM01,5/4/2011,2:15,5/3/2011,22:15,28.48607,-84.02975,24.7,54.2,35.85,8.27,100.5,6.4
11BHM01,5/4/2011,2:20,5/3/2011,22:20,28.49355,-84.0403,24.67,54.19,35.84,8.27,100.4,1.7
11BHM01,5/4/2011,2:25,5/3/2011,22:25,28.50123,-84.05078,24.65,54.17,35.83,8.27,100.3,0.5
11BHM01,5/4/2011,2:30,5/3/2011,22:30,28.50883,-84.06125,24.68,54.19,35.84,8.27,100.4,1.8
11BHM01,5/4/2011,2:35,5/3/2011,22:35,28.51633,-84.07177,24.74,54.19,35.84,8.28,100.4,0.9
11BHM01,5/4/2011,2:40,5/3/2011,22:40,28.52398,-84.08208,24.79,54.21,35.85,8.27,100.5,1
11BHM01,5/4/2011,2:45,5/3/2011,22:45,28.53145,-84.09263,24.77,54.24,35.87,8.28,100.5,3.5
11BHM01,5/4/2011,2:50,5/3/2011,22:50,28.53905,-84.10293,24.76,54.23,35.87,8.27,100.4,0.8
11BHM01,5/4/2011,2:55,5/3/2011,22:55,28.54657,-84.11338,24.77,54.24,35.87,8.28,100.5,1.6
11BHM01,5/4/2011,3:00,5/3/2011,23:00,28.5541,-84.12393,24.79,54.24,35.88,8.28,100.5,1.9
11BHM01,5/4/2011,3:05,5/3/2011,23:05,28.56175,-84.1344,24.81,54.26,35.89,8.28,100.6,7.5
11BHM01,5/4/2011,3:10,5/3/2011,23:10,28.5693,-84.14488,24.79,54.25,35.88,8.28,100.5,4.5
11BHM01,5/4/2011,3:15,5/3/2011,23:15,28.57692,-84.1553,24.76,54.26,35.89,8.28,100.5,6
11BHM01,5/4/2011,3:20,5/3/2011,23:20,28.58453,-84.1658,24.77,54.28,35.91,8.28,100.5,0.9
11BHM01,5/4/2011,3:25,5/3/2011,23:25,28.59215,-84.17632,24.77,54.28,35.9,8.27,100.4,0.9
11BHM01,5/4/2011,3:30,5/3/2011,23:30,28.59975,-84.18697,24.78,54.26,35.89,8.28,100.3,0.4
11BHM01,5/4/2011,3:35,5/3/2011,23:35,28.60752,-84.19755,24.78,54.27,35.9,8.28,100.3,1
11BHM01,5/4/2011,3:40,5/3/2011,23:40,28.61525,-84.20823,24.77,54.27,35.9,8.28,100.5,1.1
11BHM01,5/4/2011,3:45,5/3/2011,23:45,28.6228,-84.21873,24.77,54.28,35.9,8.28,100.1,1.1
11BHM01,5/4/2011,3:50,5/3/2011,23:50,28.6304,-84.2292,24.77,54.28,35.9,8.28,100.5,3.5
11BHM01,5/4/2011,3:55,5/3/2011,23:55,28.63792,-84.2396,24.78,54.28,35.91,8.28,100.4,4.8
11BHM01,5/4/2011,4:00,5/4/2011,0:00,28.64543,-84.2499,24.8,54.29,35.92,8.27,100.3,0.7
11BHM01,5/4/2011,4:05,5/4/2011,0:05,28.65297,-84.26025,24.79,54.29,35.91,8.27,100.6,2
11BHM01,5/4/2011,4:10,5/4/2011,0:10,28.66048,-84.27085,24.76,54.31,35.93,8.27,100.4,2.3
11BHM01,5/4/2011,4:15,5/4/2011,0:15,28.66815,-84.28132,24.76,54.29,35.92,8.27,100.2,4.7
11BHM01,5/4/2011,4:20,5/4/2011,0:20,28.67778,-84.28857,24.77,54.28,35.91,8.27,100.2,2.2
11BHM01,5/4/2011,4:25,5/4/2011,0:25,28.68858,-84.29488,24.75,54.28,35.9,8.27,100.4,1
11BHM01,5/4/2011,4:30,5/4/2011,0:30,28.69947,-84.30138,24.72,54.26,35.89,8.27,100.4,1.7
11BHM01,5/4/2011,4:35,5/4/2011,0:35,28.71033,-84.30775,24.69,54.24,35.88,8.27,100.5,1
11BHM01,5/4/2011,4:40,5/4/2011,0:40,28.72118,-84.31407,24.67,54.25,35.88,8.26,100.6,0.8
11BHM01,5/4/2011,4:45,5/4/2011,0:45,28.73202,-84.32048,24.68,54.23,35.87,8.27,100.6,0.9
11BHM01,5/4/2011,4:50,5/4/2011,0:50,28.74288,-84.32685,24.68,54.26,35.89,8.26,100.6,1.9
11BHM01,5/4/2011,4:55,5/4/2011,0:55,28.75372,-84.33322,24.68,54.26,35.89,8.27,100.2,1.3
11BHM01,5/4/2011,5:00,5/4/2011,1:00,28.76458,-84.3396,24.68,54.27,35.9,8.26,100.6,0.8
11BHM01,5/4/2011,5:05,5/4/2011,1:05,28.77545,-84.34598,24.68,54.28,35.91,8.27,100.6,0.8
11BHM01,5/4/2011,5:10,5/4/2011,1:10,28.7863,-84.35243,24.69,54.27,35.9,8.26,100.7,1
11BHM01,5/4/2011,5:15,5/4/2011,1:15,28.79718,-84.35885,24.69,54.26,35.89,8.27,100.6,1.3
11BHM01,5/4/2011,5:20,5/4/2011,1:20,28.8081,-84.36528,24.67,54.26,35.89,8.27,100.5,1.7
11BHM01,5/4/2011,5:25,5/4/2011,1:25,28.819,-84.37165,24.67,54.26,35.89,8.27,100.6,1.2
11BHM01,5/4/2011,5:30,5/4/2011,1:30,28.82993,-84.37807,24.65,54.24,35.88,8.26,100.7,1.1
11BHM01,5/4/2011,5:35,5/4/2011,1:35,28.84085,-84.38465,24.63,54.2,35.85,8.26,100.7,1.5
11BHM01,5/4/2011,5:40,5/4/2011,1:40,28.85178,-84.391,24.6,54.18,35.83,8.26,100.8,0.8
11BHM01,5/4/2011,5:45,5/4/2011,1:45,28.86268,-84.39737,24.62,54.15,35.81,8.26,101,0.8
11BHM01,5/4/2011,5:50,5/4/2011,1:50,28.87347,-84.4037,24.61,54.13,35.8,8.26,100.9,0.8
11BHM01,5/4/2011,5:55,5/4/2011,1:55,28.88423,-84.41013,24.6,54.09,35.77,8.26,100.9,2.6
11BHM01,5/4/2011,6:00,5/4/2011,2:00,28.89515,-84.4166,24.58,54.05,35.74,8.26,101.1,1.1
11BHM01,5/4/2011,6:05,5/4/2011,2:05,28.90608,-84.42297,24.55,54.01,35.71,8.25,101.1,1.6
11BHM01,5/4/2011,6:10,5/4/2011,2:10,28.91698,-84.42932,24.52,53.97,35.68,8.25,101.1,0.8
11BHM01,5/4/2011,6:15,5/4/2011,2:15,28.92785,-84.43573,24.49,53.94,35.66,8.25,101.1,1.4
11BHM01,5/4/2011,6:20,5/4/2011,2:20,28.93867,-84.44218,24.45,53.91,35.63,8.25,101,1.5
11BHM01,5/4/2011,6:25,5/4/2011,2:25,28.94952,-84.44855,24.43,53.87,35.6,8.25,101.1,0.7
11BHM01,5/4/2011,6:30,5/4/2011,2:30,28.96035,-84.45497,24.4,53.84,35.59,8.25,101.1,0.3
11BHM01,5/4/2011,6:35,5/4/2011,2:35,28.97125,-84.46143,24.37,53.82,35.57,8.24,101,2
11BHM01,5/4/2011,6:40,5/4/2011,2:40,28.98212,-84.4679,24.33,53.81,35.56,8.24,101.2,2
11BHM01,5/4/2011,6:45,5/4/2011,2:45,28.99312,-84.47422,24.32,53.76,35.53,8.24,101.1,1.3
11BHM01,5/4/2011,6:50,5/4/2011,2:50,29.00398,-84.48078,24.3,53.76,35.53,8.24,101.1,1.1
11BHM01,5/4/2011,6:55,5/4/2011,2:55,29.01482,-84.48712,24.28,53.76,35.53,8.24,101,2.9
11BHM01,5/4/2011,7:00,5/4/2011,3:00,29.02575,-84.49343,24.27,53.76,35.53,8.24,101,0.2
11BHM01,5/4/2011,7:05,5/4/2011,3:05,29.03655,-84.49985,24.25,53.76,35.53,8.24,101,0.9
11BHM01,5/4/2011,7:10,5/4/2011,3:10,29.0474,-84.50623,24.25,53.75,35.53,8.24,100.8,0.8
11BHM01,5/4/2011,7:15,5/4/2011,3:15,29.05818,-84.5127,24.22,53.76,35.53,8.24,100.8,0.7
11BHM01,5/4/2011,7:20,5/4/2011,3:20,29.06908,-84.51907,24.23,53.74,35.52,8.24,100.8,3.5
11BHM01,5/4/2011,7:25,5/4/2011,3:25,29.07997,-84.52545,24.21,53.75,35.52,8.24,100.7,2.5
11BHM01,5/4/2011,7:30,5/4/2011,3:30,29.09087,-84.53188,24.2,53.76,35.53,8.24,100.8,0.4
11BHM01,5/4/2011,7:35,5/4/2011,3:35,29.10172,-84.53837,24.2,53.76,35.53,8.24,100.8,1.5
11BHM01,5/4/2011,7:40,5/4/2011,3:40,29.11255,-84.5448,24.2,53.76,35.53,8.24,100.8,1.1
11BHM01,5/4/2011,7:45,5/4/2011,3:45,29.1234,-84.55115,24.19,53.77,35.54,8.24,100.6,1.4
11BHM01,5/4/2011,7:50,5/4/2011,3:50,29.13422,-84.55752,24.2,53.76,35.53,8.24,100.6,1
11BHM01,5/4/2011,7:55,5/4/2011,3:55,29.14505,-84.56385,24.19,53.77,35.54,8.24,100.7,1.5
11BHM01,5/4/2011,8:00,5/4/2011,4:00,29.15587,-84.57023,24.19,53.76,35.53,8.24,100.7,0.5
11BHM01,5/4/2011,8:05,5/4/2011,4:05,29.16667,-84.57677,24.19,53.76,35.53,8.24,100.8,0.7
11BHM01,5/4/2011,8:10,5/4/2011,4:10,29.17747,-84.58308,24.21,53.75,35.52,8.24,100.8,1.7
11BHM01,5/4/2011,8:15,5/4/2011,4:15,29.18823,-84.58945,24.21,53.77,35.54,8.24,100.8,2.4
11BHM01,5/4/2011,8:20,5/4/2011,4:20,29.19893,-84.59578,24.25,53.75,35.52,8.24,100.6,1.2
11BHM01,5/4/2011,8:25,5/4/2011,4:25,29.20943,-84.60195,24.27,53.73,35.51,8.24,101.1,3.4
11BHM01,5/4/2011,8:30,5/4/2011,4:30,29.21973,-84.6081,24.28,53.71,35.49,8.24,101.1,1.2
11BHM01,5/4/2011,8:35,5/4/2011,4:35,29.23003,-84.61422,24.27,53.7,35.49,8.24,101.2,0.8
11BHM01,5/4/2011,8:40,5/4/2011,4:40,29.24028,-84.6202,24.28,53.68,35.47,8.24,101.3,8.4
11BHM01,5/4/2011,8:45,5/4/2011,4:45,29.25047,-84.62625,24.28,53.68,35.47,8.24,101.3,2
11BHM01,5/4/2011,8:50,5/4/2011,4:50,29.26062,-84.63222,24.28,53.66,35.46,8.25,101.4,4.6
11BHM01,5/4/2011,8:55,5/4/2011,4:55,29.27068,-84.63823,24.27,53.65,35.45,8.25,101.5,1
11BHM01,5/4/2011,9:00,5/4/2011,5:00,29.28078,-84.6441,24.28,53.64,35.44,8.24,101.4,1.1
11BHM01,5/4/2011,9:05,5/4/2011,5:05,29.29067,-84.64995,24.28,53.61,35.42,8.25,101.4,0.8
11BHM01,5/4/2011,9:10,5/4/2011,5:10,29.30043,-84.65575,24.27,53.61,35.42,8.24,101.3,6.6
11BHM01,5/4/2011,9:15,5/4/2011,5:15,29.31017,-84.6614,24.26,53.59,35.41,8.24,101.2,1.3
11BHM01,5/4/2011,9:20,5/4/2011,5:20,29.3196,-84.66715,24.24,53.56,35.38,8.24,101.2,1.2
11BHM01,5/4/2011,9:25,5/4/2011,5:25,29.32913,-84.67277,24.19,53.56,35.38,8.24,101.6,1.2
11BHM01,5/4/2011,9:30,5/4/2011,5:30,29.33875,-84.6785,24.17,53.52,35.36,8.25,102.4,2.9
11BHM01,5/4/2011,9:35,5/4/2011,5:35,29.34842,-84.68323,24.17,53.5,35.34,8.24,102.6,1.5
11BHM01,5/4/2011,9:40,5/4/2011,5:40,29.35835,-84.68507,24.16,53.52,35.35,8.24,102.9,10
11BHM01,5/4/2011,9:45,5/4/2011,5:45,29.36657,-84.6868,24.15,53.49,35.33,8.24,102.3,3
11BHM01,5/4/2011,9:50,5/4/2011,5:50,29.37472,-84.68862,24.16,53.52,35.35,8.24,102.2,1.3
11BHM01,5/4/2011,9:55,5/4/2011,5:55,29.38297,-84.69058,24.19,53.53,35.36,8.24,102.1,2.3
11BHM01,5/4/2011,10:00,5/4/2011,6:00,29.39137,-84.69265,24.22,53.53,35.36,8.24,102.3,1.3
11BHM01,5/4/2011,10:05,5/4/2011,6:05,29.39962,-84.69465,24.26,53.53,35.36,8.24,102.4,1.2
11BHM01,5/4/2011,10:10,5/4/2011,6:10,29.40805,-84.6967,24.28,53.54,35.36,8.24,102.1,1.5
11BHM01,5/4/2011,10:15,5/4/2011,6:15,29.41638,-84.69892,24.31,53.55,35.37,8.24,102.1,1.9
11BHM01,5/4/2011,10:20,5/4/2011,6:20,29.42468,-84.70133,24.33,53.54,35.36,8.24,102.2,1.6
11BHM01,5/4/2011,10:25,5/4/2011,6:25,29.43255,-84.70358,24.34,53.55,35.37,8.24,102.1,1
11BHM01,5/4/2011,10:30,5/4/2011,6:30,29.44098,-84.70605,24.35,53.56,35.38,8.24,102,1.5
11BHM01,5/4/2011,10:35,5/4/2011,6:35,29.4493,-84.70857,24.37,53.55,35.37,8.24,101.8,1.4
11BHM01,5/4/2011,10:40,5/4/2011,6:40,29.45775,-84.711,24.38,53.56,35.38,8.24,101.8,1.7
11BHM01,5/4/2011,10:45,5/4/2011,6:45,29.46608,-84.71347,24.4,53.56,35.38,8.24,102,1.2
11BHM01,5/4/2011,10:50,5/4/2011,6:50,29.47452,-84.71593,24.41,53.56,35.38,8.24,101.8,1.2
11BHM01,5/4/2011,10:55,5/4/2011,6:55,29.48163,-84.71743,24.41,53.56,35.38,8.24,101.9,1
11BHM01,5/4/2011,11:00,5/4/2011,7:00,29.48868,-84.71967,24.42,53.56,35.38,8.24,101.7,2
11BHM01,5/4/2011,11:05,5/4/2011,7:05,29.49563,-84.72188,24.42,53.57,35.38,8.24,101.7,3.7
11BHM01,5/4/2011,11:10,5/4/2011,7:10,29.50272,-84.72392,24.43,53.57,35.38,8.23,101.7,1.9
11BHM01,5/4/2011,11:15,5/4/2011,7:15,29.51023,-84.72597,24.44,53.57,35.39,8.24,101.6,2
11BHM01,5/4/2011,11:20,5/4/2011,7:20,29.51783,-84.72803,24.46,53.57,35.39,8.23,101.6,0.9
11BHM01,5/4/2011,11:25,5/4/2011,7:25,29.52538,-84.73022,24.46,53.58,35.39,8.24,101.6,0.6
11BHM01,5/4/2011,11:30,5/4/2011,7:30,29.533,-84.73243,24.47,53.58,35.39,8.24,101.1,1.9
11BHM01,5/4/2011,11:35,5/4/2011,7:35,29.54073,-84.73457,24.47,53.58,35.39,8.24,101.1,1.6
11BHM01,5/4/2011,11:40,5/4/2011,7:40,29.54833,-84.73682,24.47,53.58,35.39,8.24,101.4,1.3
11BHM01,5/4/2011,11:45,5/4/2011,7:45,29.55608,-84.739,24.47,53.58,35.39,8.24,101.2,1.5
11BHM01,5/4/2011,11:50,5/4/2011,7:50,29.56398,-84.7412,24.48,53.58,35.39,8.24,101.3,1.8
11BHM01,5/4/2011,11:55,5/4/2011,7:55,29.57203,-84.74318,24.48,53.59,35.4,8.23,101.2,1.3
11BHM01,5/4/2011,12:00,5/4/2011,8:00,29.58,-84.74502,24.47,53.59,35.4,8.24,101.2,3.1
11BHM01,5/4/2011,12:05,5/4/2011,8:05,29.58802,-84.74665,24.48,53.59,35.4,8.24,101,1.3
11BHM01,5/4/2011,12:10,5/4/2011,8:10,29.59595,-84.74833,24.48,53.59,35.4,8.24,101.1,1.4
11BHM01,5/4/2011,12:15,5/4/2011,8:15,29.60435,-84.74983,24.5,53.59,35.4,8.23,100.7,1.8
11BHM01,5/4/2011,12:20,5/4/2011,8:20,29.60437,-84.75685,24.49,53.59,35.4,8.23,100.5,1.1
11BHM01,5/4/2011,12:25,5/4/2011,8:25,29.59907,-84.7667,24.5,53.59,35.4,8.24,100.7,1.6
11BHM01,5/4/2011,12:30,5/4/2011,8:30,29.5936,-84.77637,24.5,53.59,35.4,8.24,100.6,2.9
11BHM01,5/4/2011,12:35,5/4/2011,8:35,29.58812,-84.78585,24.49,53.6,35.4,8.23,100.4,1.7
11BHM01,5/4/2011,12:40,5/4/2011,8:40,29.58263,-84.79548,24.49,53.6,35.4,8.24,100.3,1